DW5256 Weather Reports


time (UTC)temp
F
wind
direction
speed
knots
gust
knots
rain 1hr
in
rain 24hr
in
rain mn
in
humidity
%
barometer
mb
20260507105016 56 309 0.0 0.0 0.00 0.00 0.00 86 1014.4
20260507103514 56 309 0.0 0.0 0.00 0.00 0.00 86 1014.5
20260507102032 56 309 0.0 0.0 0.00 0.00 0.00 86 1014.6
20260507100533 56 309 0.0 0.0 0.00 0.00 0.00 86 1014.6
20260507095045 56 309 0.0 0.0 0.00 0.00 0.00 86 1014.7
20260507093524 57 309 0.0 0.0 0.00 0.00 0.00 85 1014.8
20260507092040 57 309 0.0 0.0 0.00 0.00 0.00 85 1014.9
20260507090543 57 309 0.0 0.0 0.00 0.00 0.00 85 1015.1
20260507085015 57 309 0.0 0.0 0.00 0.00 0.00 85 1015.2
20260507083533 57 309 0.0 0.0 0.00 0.00 0.00 85 1015.3
20260507082033 57 309 0.0 0.0 0.00 0.00 0.00 85 1015.4
20260507080534 57 309 0.0 0.0 0.00 0.00 0.00 85 1015.5
20260507075013 57 309 0.0 0.0 0.00 0.00 0.00 84 1015.6
20260507073531 58 309 0.0 0.0 0.00 0.00 0.00 85 1015.5
20260507072026 58 309 0.0 0.0 0.00 0.00 0.00 84 1015.5
20260507070524 59 309 0.0 0.0 0.00 0.00 0.00 84 1015.6
20260507065031 59 309 0.0 0.0 0.00 0.00 0.00 84 1015.8
20260507063530 59 309 0.0 0.0 0.00 0.00 0.00 83 1015.9
20260507062046 59 309 0.0 0.0 0.00 0.00 0.00 83 1015.9
20260507060527 59 309 0.0 0.0 0.00 0.00 0.00 82 1015.9
20260507055022 59 309 0.0 0.0 0.00 0.00 0.00 81 1015.9
20260507053524 59 309 0.0 0.0 0.00 0.00 0.00 80 1015.9
20260507052022 60 309 0.0 0.0 0.00 0.00 0.00 80 1015.9
20260507050554 60 309 0.0 0.0 0.00 0.00 0.00 80 1015.9
20260507045028 60 309 0.0 0.0 0.00 0.00 0.00 80 1015.9
20260507043528 60 309 0.0 0.0 0.00 0.00 0.00 80 1015.7
20260507042027 60 309 0.0 0.0 0.00 0.00 0.00 80 1015.8
20260507040525 60 309 0.0 3.5 0.00 0.00 0.00 80 1015.7
20260507035028 61 296 0.0 5.2 0.00 0.00 0.00 79 1015.4
20260507033546 61 288 0.0 3.5 0.00 0.00 0.00 77 1015.3
20260507032024 62 319 0.0 5.2 0.00 0.00 0.00 76 1015.1
20260507030524 62 321 0.9 4.3 0.00 0.00 0.00 74 1015.1
20260507025015 63 315 0.9 7.8 0.00 0.00 0.00 72 1014.9
20260507023517 63 314 0.0 3.5 0.00 0.00 0.00 72 1014.7
20260507022014 64 306 1.7 7.8 0.00 0.00 0.00 69 1014.6
20260507020534 65 290 0.9 8.7 0.00 0.00 0.00 67 1014.6
20260507015014 66 311 3.5 8.7 0.00 0.00 0.00 66 1014.5
20260507013534 66 306 1.7 8.7 0.00 0.00 0.00 65 1014.4
20260507012034 67 296 1.7 7.0 0.00 0.00 0.00 63 1014.4
20260507010555 67 286 1.7 9.6 0.00 0.00 0.00 63 1014.5
20260507005013 68 325 3.5 11.3 0.00 0.00 0.00 63 1014.4
20260507003534 68 255 2.6 8.7 0.00 0.00 0.00 64 1014.3
20260507002013 68 315 0.9 7.0 0.00 0.00 0.00 63 1014.3
20260507000532 68 302 3.5 8.7 0.00 0.00 0.00 63 1014.1
20260506235030 68 346 3.5 13.0 0.00 0.00 0.00 64 1014.2
20260506233532 68 292 1.7 12.2 0.00 0.00 0.00 65 1014.0
20260506232030 68 261 2.6 13.0 0.00 0.00 0.00 63 1014.1
20260506230532 70 294 4.3 11.3 0.00 0.00 0.00 62 1014.1
20260506225028 69 311 5.2 12.2 0.00 0.00 0.00 63 1014.1
20260506223544 69 279 5.2 13.0 0.00 0.00 0.00 62 1014.2
20260506222037 70 265 5.2 11.3 0.00 0.00 0.00 60 1014.3
20260506220532 69 282 7.8 14.8 0.00 0.00 0.00 61 1014.4
20260506215029 70 307 3.5 12.2 0.00 0.00 0.00 60 1014.6
20260506213529 71 250 3.5 12.2 0.00 0.00 0.00 61 1014.8
20260506212027 70 253 2.6 13.9 0.00 0.00 0.00 63 1014.8
20260506210546 70 224 4.3 13.9 0.00 0.00 0.00 63 1014.8
20260506205021 70 287 4.3 12.2 0.00 0.00 0.00 62 1015.0
20260506203521 71 246 1.7 13.0 0.00 0.00 0.00 62 1015.0
20260506202018 71 261 7.0 13.0 0.00 0.00 0.00 60 1015.1
20260506200516 72 268 0.9 11.3 0.00 0.00 0.00 60 1015.1
20260506195028 71 273 1.7 12.2 0.00 0.00 0.00 59 1015.2
20260506193523 71 273 0.0 9.6 0.00 0.00 0.00 59 1015.3
20260506192022 70 299 5.2 10.4 0.00 0.00 0.00 59 1015.5
20260506190541 70 259 0.9 11.3 0.00 0.00 0.00 58 1015.5
20260506185030 69 331 0.0 8.7 0.00 0.00 0.00 57 1015.6
20260506183545 69 306 2.6 7.8 0.00 0.00 0.00 57 1015.8
20260506182015 68 290 0.9 8.7 0.00 0.00 0.00 59 1016.0
20260506180547 68 311 6.1 8.7 0.00 0.00 0.00 60 1016.3
20260506175036 66 319 0.0 8.7 0.00 0.00 0.00 63 1016.4
20260506173552 66 266 4.3 11.3 0.00 0.00 0.00 63 1016.5
20260506172021 65 281 0.9 8.7 0.00 0.00 0.00 65 1016.6
20260506170517 63 321 0.9 7.8 0.00 0.00 0.00 68 1016.6
20260506165024 63 313 2.6 7.0 0.00 0.00 0.00 68 1016.5
20260506163520 62 347 0.0 4.3 0.00 0.00 0.00 70 1016.5
20260506162017 61 334 0.0 4.3 0.00 0.00 0.00 70 1016.6
20260506160532 61 344 0.0 5.2 0.00 0.00 0.00 71 1016.7
20260506155043 61 355 0.0 2.6 0.00 0.00 0.00 71 1016.6
20260506153534 60 21 0.0 3.5 0.00 0.00 0.00 72 1016.7
20260506152023 59 11 0.0 3.5 0.00 0.00 0.00 73 1016.8
20260506150515 58 360 0.0 2.6 0.00 0.00 0.00 74 1016.8
20260506145028 57 360 0.0 3.5 0.00 0.06 0.00 75 1016.7
20260506143517 56 351 0.0 0.0 0.00 0.06 0.00 77 1016.7
20260506142026 55 351 0.0 2.6 0.00 0.06 0.00 79 1016.6
20260506140533 53 338 0.0 0.0 0.00 0.06 0.00 80 1016.6
20260506135029 54 335 0.0 3.5 0.00 0.06 0.00 80 1016.6
20260506133543 53 325 0.0 0.0 0.00 0.06 0.00 81 1016.3
20260506132027 52 325 0.0 0.0 0.00 0.06 0.00 81 1016.2
20260506130536 52 325 0.0 2.6 0.00 0.06 0.00 81 1016.1
20260506125030 52 319 0.0 0.0 0.00 0.06 0.00 81 1015.8
20260506123547 52 311 0.0 1.7 0.00 0.06 0.00 81 1015.7
20260506122017 52 306 0.0 0.0 0.00 0.06 0.00 81 1015.8
20260506120533 53 302 0.0 0.0 0.00 0.06 0.00 81 1015.8
20260506115048 53 302 0.0 0.0 0.00 0.07 0.00 81 1015.7
20260506113525 53 302 0.0 0.0 0.00 0.07 0.00 81 1015.8
20260506112040 53 302 0.0 0.0 0.00 0.07 0.00 80 1015.7
20260506110518 54 302 0.0 0.0 0.00 0.07 0.00 80 1015.7